User: anonymous
Location: Oshawa
(43.9000°N, 78.8670°W)
Time: 00:21:18
(UTC-04:00)
Language:

Cosmos 1707 Rocket - Orbit

View from above orbital plane
View from above orbital plane
View from above satellite
View from above satellite

Ground track
Ground track

The orbit data is extracted from the following two-line orbital elements,

1 16327U 85113B   14273.66066838  .00000362  00000-0  41624-4 0  4736
2 16327 082.5325 298.1589 0019240 019.2764 120.0800 14.82860207555052
Epoch (UTC): 30 September 2014 15:51:21
Eccentricity: 0.0019240
inclination: 82.5325°
perigee height: 607 km
apogee height: 634 km
right ascension of ascending node: 298.1589°
argument of perigee: 19.2764°
revolutions per day: 14.82860207
mean anomaly at epoch: 120.0800°
orbit number at epoch: 55505

The dashed part of the orbit path shows where the satellite is in the earth's shadow,  

DLR